| time (UTC) | temp C | wind direction | speed KPH | gust KPH | rain 1hr cm | rain 24hr cm | rain mn cm | humidity % | barometer mb |
| 20260509024538 | 10 | 146 | 1.6 | 8.0 | 0.00 | 0.00 | 0.00 | 84 | 1007.3 |
| 20260509023039 | 10 | 146 | 1.6 | 8.0 | 0.00 | 0.00 | 0.00 | 83 | 1007.3 |
| 20260509021545 | 10 | 0 | 3.2 | 16.1 | 0.00 | 0.00 | 0.00 | 82 | 1007.5 |
| 20260509020045 | 10 | 141 | 8.0 | 17.7 | 0.00 | 0.00 | 0.00 | 81 | 1007.3 |
| 20260509014542 | 11 | 143 | 8.0 | 19.3 | 0.00 | 0.00 | 0.00 | 80 | 1007.3 |
| 20260509013039 | 11 | 144 | 8.0 | 17.7 | 0.00 | 0.00 | 0.00 | 78 | 1007.3 |
| 20260509011548 | 11 | 147 | 9.7 | 19.3 | 0.00 | 0.00 | 0.00 | 76 | 1007.2 |
| 20260509010047 | 12 | 146 | 6.4 | 14.5 | 0.00 | 0.00 | 0.00 | 74 | 1006.9 |
| 20260509004544 | 12 | 144 | 1.6 | 17.7 | 0.00 | 0.00 | 0.00 | 73 | 1006.8 |
| 20260509003045 | 12 | 147 | 1.6 | 12.9 | 0.00 | 0.00 | 0.00 | 71 | 1006.7 |
| 20260509001537 | 13 | 144 | 0.0 | 16.1 | 0.00 | 0.00 | 0.00 | 69 | 1006.6 |
| 20260509000043 | 13 | 0 | 4.8 | 20.9 | 0.00 | 0.00 | 0.00 | 67 | 1006.5 |
| 20260508234550 | 14 | 159 | 9.7 | 22.5 | 0.00 | 0.00 | 0.00 | 64 | 1006.5 |
| 20260508233047 | 15 | 192 | 6.4 | 17.7 | 0.00 | 0.00 | 0.00 | 58 | 1006.6 |
| 20260508231540 | 15 | 150 | 8.0 | 19.3 | 0.00 | 0.00 | 0.00 | 58 | 1006.6 |
| 20260508230109 | 15 | 163 | 4.8 | 19.3 | 0.00 | 0.00 | 0.00 | 56 | 1006.5 |
| 20260508224546 | 15 | 170 | 9.7 | 19.3 | 0.00 | 0.00 | 0.00 | 52 | 1006.7 |
| 20260508223045 | 16 | 154 | 1.6 | 22.5 | 0.00 | 0.00 | 0.00 | 49 | 1006.8 |
| 20260508221543 | 15 | 199 | 6.4 | 20.9 | 0.00 | 0.00 | 0.00 | 44 | 1006.9 |
| 20260508220109 | 16 | 171 | 4.8 | 24.1 | 0.00 | 0.00 | 0.00 | 47 | 1007.0 |
| 20260508214538 | 16 | 176 | 3.2 | 16.1 | 0.00 | 0.00 | 0.00 | 46 | 1007.1 |
| 20260508213052 | 16 | 181 | 6.4 | 22.5 | 0.00 | 0.00 | 0.00 | 45 | 1007.0 |
| 20260508211546 | 16 | 142 | 8.0 | 22.5 | 0.00 | 0.00 | 0.00 | 41 | 1007.0 |
| 20260508210040 | 16 | 143 | 8.0 | 19.3 | 0.00 | 0.00 | 0.00 | 43 | 1007.2 |
| 20260508204546 | 16 | 0 | 6.4 | 16.1 | 0.00 | 0.00 | 0.00 | 34 | 1007.2 |
| 20260508203047 | 16 | 275 | 9.7 | 16.1 | 0.00 | 0.00 | 0.00 | 33 | 1007.5 |
| 20260508201543 | 16 | 261 | 6.4 | 16.1 | 0.00 | 0.00 | 0.00 | 32 | 1007.8 |
| 20260508200039 | 16 | 201 | 6.4 | 16.1 | 0.00 | 0.00 | 0.00 | 33 | 1008.2 |
| 20260508194540 | 15 | 0 | 3.2 | 30.6 | 0.00 | 0.00 | 0.00 | 34 | 1008.3 |
| 20260508193040 | 15 | 275 | 8.0 | 16.1 | 0.00 | 0.00 | 0.00 | 31 | 1008.4 |
| 20260508191544 | 15 | 0 | 8.0 | 16.1 | 0.00 | 0.00 | 0.00 | 35 | 1008.6 |
| 20260508190048 | 15 | 215 | 4.8 | 24.1 | 0.00 | 0.00 | 0.00 | 34 | 1008.9 |
| 20260508184546 | 15 | 298 | 11.3 | 19.3 | 0.00 | 0.00 | 0.00 | 33 | 1009.0 |
| 20260508183043 | 15 | 256 | 6.4 | 14.5 | 0.00 | 0.00 | 0.00 | 38 | 1009.2 |
| 20260508181604 | 14 | 0 | 0.0 | 16.1 | 0.00 | 0.00 | 0.00 | 35 | 1009.4 |
| 20260508180056 | 14 | 0 | 1.6 | 12.9 | 0.00 | 0.00 | 0.00 | 42 | 1009.7 |
| 20260508174551 | 15 | 254 | 3.2 | 12.9 | 0.00 | 0.00 | 0.00 | 35 | 1010.0 |
| 20260508173047 | 15 | 253 | 8.0 | 17.7 | 0.00 | 0.00 | 0.00 | 39 | 1010.1 |
| 20260508171539 | 14 | 290 | 4.8 | 12.9 | 0.00 | 0.00 | 0.00 | 36 | 1010.2 |
| 20260508170038 | 13 | 0 | 0.0 | 12.9 | 0.00 | 0.00 | 0.00 | 38 | 1010.4 |
| 20260508164545 | 14 | 232 | 4.8 | 16.1 | 0.00 | 0.00 | 0.00 | 31 | 1010.6 |
| 20260508163045 | 13 | 0 | 0.0 | 17.7 | 0.00 | 0.00 | 0.00 | 32 | 1010.6 |
| 20260508161539 | 13 | 248 | 3.2 | 12.9 | 0.00 | 0.00 | 0.00 | 37 | 1010.7 |
| 20260508160039 | 13 | 0 | 0.0 | 11.3 | 0.00 | 0.00 | 0.00 | 40 | 1010.7 |
| 20260508154538 | 13 | 268 | 6.4 | 14.5 | 0.00 | 0.00 | 0.00 | 42 | 1011.0 |
| 20260508153047 | 12 | 275 | 0.0 | 14.5 | 0.00 | 0.00 | 0.00 | 40 | 1011.1 |
| 20260508151545 | 12 | 333 | 3.2 | 16.1 | 0.00 | 0.00 | 0.00 | 41 | 1011.1 |
| 20260508150046 | 12 | 248 | 4.8 | 12.9 | 0.00 | 0.00 | 0.00 | 40 | 1011.2 |
| 20260508144543 | 12 | 0 | 1.6 | 12.9 | 0.00 | 0.00 | 0.00 | 47 | 1011.3 |
| 20260508143039 | 11 | 0 | 0.0 | 14.5 | 0.00 | 0.00 | 0.00 | 47 | 1011.4 |
| 20260508141546 | 11 | 0 | 1.6 | 9.7 | 0.00 | 0.00 | 0.00 | 49 | 1011.4 |
| 20260508140041 | 11 | 178 | 3.2 | 9.7 | 0.00 | 0.00 | 0.00 | 53 | 1011.5 |
| 20260508134556 | 10 | 74 | 0.0 | 8.0 | 0.00 | 0.00 | 0.00 | 53 | 1011.5 |
| 20260508133045 | 10 | 0 | 0.0 | 0.0 | 0.00 | 0.00 | 0.00 | 58 | 1011.5 |
| 20260508131544 | 10 | 0 | 0.0 | 3.2 | 0.00 | 0.00 | 0.00 | 60 | 1011.6 |
| 20260508130041 | 9 | 0 | 0.0 | 0.0 | 0.00 | 0.00 | 0.00 | 65 | 1011.6 |
| 20260508124538 | 8 | 0 | 0.0 | 0.0 | 0.00 | 0.00 | 0.00 | 67 | 1011.4 |
| 20260508123054 | 8 | 0 | 0.0 | 0.0 | 0.00 | 0.00 | 0.00 | 74 | 1011.3 |
| 20260508121546 | 6 | 0 | 0.0 | 0.0 | 0.00 | 0.00 | 0.00 | 82 | 1011.1 |
| 20260508120046 | 5 | 0 | 0.0 | 0.0 | 0.00 | 0.00 | 0.00 | 87 | 1011.1 |
| 20260508114549 | 4 | 0 | 0.0 | 0.0 | 0.00 | 0.00 | 0.00 | 90 | 1011.0 |
| 20260508113045 | 3 | 0 | 0.0 | 0.0 | 0.00 | 0.00 | 0.00 | 90 | 1010.8 |
| 20260508111546 | 2 | 0 | 0.0 | 0.0 | 0.00 | 0.00 | 0.00 | 90 | 1010.8 |
| 20260508110048 | 1 | 0 | 0.0 | 0.0 | 0.00 | 0.00 | 0.00 | 89 | 1010.8 |
| 20260508104544 | 1 | 0 | 0.0 | 0.0 | 0.00 | 0.00 | 0.00 | 88 | 1010.7 |
| 20260508103048 | 1 | 0 | 0.0 | 0.0 | 0.00 | 0.00 | 0.00 | 88 | 1010.7 |
| 20260508101541 | 2 | 0 | 0.0 | 0.0 | 0.00 | 0.00 | 0.00 | 88 | 1010.8 |
| 20260508100039 | 2 | 0 | 0.0 | 0.0 | 0.00 | 0.00 | 0.00 | 87 | 1010.9 |
| 20260508094600 | 2 | 0 | 0.0 | 0.0 | 0.00 | 0.00 | 0.00 | 87 | 1011.0 |
| 20260508093044 | 2 | 0 | 0.0 | 0.0 | 0.00 | 0.00 | 0.00 | 86 | 1011.0 |
| 20260508091546 | 3 | 0 | 0.0 | 0.0 | 0.00 | 0.00 | 0.00 | 85 | 1011.1 |
| 20260508090050 | 3 | 0 | 0.0 | 0.0 | 0.00 | 0.00 | 0.00 | 84 | 1011.1 |
| 20260508084539 | 4 | 0 | 0.0 | 0.0 | 0.00 | 0.00 | 0.00 | 83 | 1011.1 |
| 20260508083041 | 4 | 0 | 0.0 | 0.0 | 0.00 | 0.00 | 0.00 | 85 | 1011.3 |
| 20260508081558 | 4 | 0 | 0.0 | 9.7 | 0.00 | 0.00 | 0.00 | 84 | 1011.1 |
| 20260508080037 | 4 | 0 | 0.0 | 0.0 | 0.00 | 0.00 | 0.00 | 83 | 1010.7 |
| 20260508074546 | 4 | 0 | 0.0 | 0.0 | 0.00 | 0.00 | 0.00 | 83 | 1010.7 |
| 20260508073044 | 4 | 0 | 0.0 | 0.0 | 0.00 | 0.00 | 0.00 | 81 | 1011.2 |
| 20260508071545 | 4 | 0 | 0.0 | 0.0 | 0.00 | 0.00 | 0.00 | 81 | 1011.1 |
| 20260508070042 | 5 | 0 | 0.0 | 0.0 | 0.00 | 0.00 | 0.00 | 79 | 1011.2 |
| 20260508064539 | 5 | 0 | 0.0 | 0.0 | 0.00 | 0.00 | 0.00 | 78 | 1011.2 |
| 20260508063051 | 5 | 0 | 0.0 | 0.0 | 0.00 | 0.00 | 0.00 | 76 | 1011.5 |
| 20260508061552 | 5 | 0 | 0.0 | 0.0 | 0.00 | 0.00 | 0.00 | 77 | 1011.4 |
| 20260508060052 | 5 | 0 | 0.0 | 0.0 | 0.00 | 0.00 | 0.00 | 78 | 1011.5 |
| 20260508054544 | 5 | 0 | 0.0 | 0.0 | 0.00 | 0.00 | 0.00 | 78 | 1011.6 |
| 20260508053042 | 5 | 0 | 0.0 | 6.4 | 0.00 | 0.00 | 0.00 | 80 | 1011.7 |
| 20260508051540 | 4 | 0 | 0.0 | 8.0 | 0.00 | 0.00 | 0.00 | 82 | 1011.8 |
| 20260508050048 | 4 | 0 | 0.0 | 0.0 | 0.00 | 0.00 | 0.00 | 80 | 1011.6 |
| 20260508044542 | 5 | 0 | 0.0 | 0.0 | 0.00 | 0.00 | 0.00 | 79 | 1011.6 |
| 20260508043044 | 5 | 0 | 0.0 | 0.0 | 0.00 | 0.00 | 0.00 | 78 | 1011.3 |
| 20260508041551 | 5 | 0 | 0.0 | 0.0 | 0.00 | 0.00 | 0.00 | 76 | 1011.3 |
| 20260508040046 | 6 | 0 | 0.0 | 4.8 | 0.00 | 0.00 | 0.00 | 75 | 1011.3 |
| 20260508034548 | 6 | 0 | 0.0 | 0.0 | 0.00 | 0.00 | 0.00 | 76 | 1011.4 |
| 20260508033047 | 6 | 0 | 0.0 | 0.0 | 0.00 | 0.00 | 0.00 | 73 | 1011.4 |
| 20260508031544 | 6 | 0 | 0.0 | 0.0 | 0.00 | 0.00 | 0.00 | 72 | 1011.4 |
| 20260508030043 | 6 | 0 | 0.0 | 0.0 | 0.00 | 0.00 | 0.00 | 71 | 1011.6 |